Погода в Бузачи

Узбекистан     39°26′20″N   64°52′41″E
темп.,
°C
ветер,
м/с
пор.,
м/с
влажн.,
%
обл.,
%
осадки,
мм/ч
давл.,
гПа
погр.,
м
3 марта, ср
ср323:00+12с453999 0.0 1024110
02:00+10сз344998 0.0 102385
05:00+8ссз456095 0.0 102387
08:00+7сз346326 0.0 102371
11:00+12зсз334117 0.0 1023401
14:00+14зсз33300 0.0 1021972
17:00+14зсз32290 0.0 10191150
20:00+12с11410 0.0 102023
4 марта, чт
чт423:00+10св22440 0.0 101922
02:00+9в33460 0.0 101824
05:00+9вюв444533 0.0 101744
08:00+10вюв4547100 0.0 101894
11:00+15ююв344585 0.5 1017466
14:00+18ююз684191 1.0 10161297
17:00+18зсз10103987 1.1 10171664
20:00+11ссз9115692 0.3 1023814
5 марта, пт
пт523:00+9с676477 0.3 1027761
02:00+7с456794 0.1 1029666
05:00+6с467154 0.1 1030188
08:00+5св22690 0.0 103098
11:00+9в23500 0.0 1028633
14:00+13в33320 0.0 10231003
17:00+15всв34320 0.0 1020873
20:00+12всв464327 0.0 1018143
6 марта, сб
сб623:00+11в595662 0.0 1015202
02:00+11всв4653100 0.0 1013123
05:00+10сз1254100 0.1 101041
08:00+9с91176100 4.2 1010240
11:00+10св61074100 6.1 1011448
14:00+11в7968100 0.2 1011603
17:00+11юв5876100 0.8 1012551
20:00+9сз7989100 1.3 1016408
7 марта, вс
вс723:00+4з7987100 5.1 1019489
02:00+4зсз5788100 1.3 1019368
05:00+3з4484100 1.5 1020280
08:00+4зюз2383100 0.0 1021318
11:00+6ююз4573100 0.0 1020735
14:00+9ююз455070 0.0 10181047
17:00+11юв555136 0.0 10161168
20:00+9вюв34570 0.0 101777